Time,TemperatureF,DewpointF,PressureIn,WindDirection,WindDirectionDegrees,WindSpeedMPH,WindSpeedGustMPH,Humidity,HourlyPrecipIn,Conditions,Clouds,dailyrainin,SoftwareType,DateUTC
2013-03-22 00:14:00,25.3,16.6,29.76,NNW,338,0.0,0.0,69,0.00,,,0.00,WUHU21623XXSP,2013-03-22 04:14:00,
2013-03-22 01:14:00,24.9,16.6,29.77,West,270,3.4,3.4,70,0.00,,,0.00,WUHU21623XXSP,2013-03-22 05:14:00,
2013-03-22 02:14:00,24.4,16.1,29.78,NNW,338,8.1,8.1,70,0.00,,,0.00,WUHU21623XXSP,2013-03-22 06:14:00,
2013-03-22 03:14:00,24.0,15.7,29.78,NNW,338,7.2,7.2,70,0.00,,,0.00,WUHU21623XXSP,2013-03-22 07:14:00,
2013-03-22 04:14:00,23.7,15.4,29.79,NNW,338,3.6,3.6,70,0.00,,,0.00,WUHU21623XXSP,2013-03-22 08:14:00,
2013-03-22 05:14:00,23.5,15.2,29.78,WNW,293,0.0,0.0,70,0.00,,,0.00,WUHU21623XXSP,2013-03-22 09:14:00,
2013-03-22 06:14:00,22.9,14.9,29.80,West,270,0.0,0.0,71,0.00,,,0.00,WUHU21623XXSP,2013-03-22 10:14:00,
2013-03-22 07:14:00,23.1,15.5,29.81,SSW,203,0.0,0.0,72,0.00,,,0.00,WUHU21623XXSP,2013-03-22 11:14:00,
2013-03-22 08:14:00,23.5,15.8,29.82,WNW,293,5.8,5.8,72,0.00,,,0.00,WUHU21623XXSP,2013-03-22 12:14:00,
2013-03-22 09:14:00,24.6,16.6,29.82,NW,315,4.7,4.7,71,0.00,,,0.00,WUHU21623XXSP,2013-03-22 13:14:00,
2013-03-22 10:14:00,27.3,17.8,29.82,WNW,293,3.4,3.4,67,0.00,,,0.00,WUHU21623XXSP,2013-03-22 14:14:00,
2013-03-22 11:14:00,30.3,19.6,29.82,NW,315,3.4,3.4,64,0.00,,,0.00,WUHU21623XXSP,2013-03-22 15:14:00,
2013-03-22 12:14:00,33.2,20.9,29.81,NW,315,6.5,6.5,60,0.00,,,0.00,WUHU21623XXSP,2013-03-22 16:14:00,
2013-03-22 13:14:00,36.1,22.8,29.81,WSW,247,0.0,0.0,58,0.00,,,0.00,WUHU21623XXSP,2013-03-22 17:14:00,
2013-03-22 13:19:00,35.9,22.2,29.81,SSW,202,0.0,0.0,57,0.00,,,0.00,WUHU21623XXSP,2013-03-22 17:19:00,
2013-03-22 13:25:00,35.7,22.4,29.81,WNW,292,6.9,6.9,58,0.00,,,0.00,WUHU21623XXSP,2013-03-22 17:25:00,
2013-03-22 13:30:00,36.3,23.0,29.81,North,0,4.0,6.9,58,0.00,,,0.00,WUHU21623XXSP,2013-03-22 17:30:00,
2013-03-22 13:35:00,36.1,22.8,29.80,WSW,247,6.9,6.9,58,0.00,,,0.00,WUHU21623XXSP,2013-03-22 17:35:00,
2013-03-22 13:40:00,36.1,22.4,29.81,South,180,2.5,6.9,57,0.00,,,0.00,WUHU21623XXSP,2013-03-22 17:40:00,
2013-03-22 13:45:00,35.9,22.2,29.81,SSW,202,2.2,2.5,57,0.00,,,0.00,WUHU21623XXSP,2013-03-22 17:45:00,
2013-03-22 13:50:00,35.9,22.6,29.81,WNW,292,3.8,9.8,58,0.00,,,0.00,WUHU21623XXSP,2013-03-22 17:50:00,
2013-03-22 13:55:00,36.1,22.8,29.81,South,180,7.6,9.8,58,0.00,,,0.00,WUHU21623XXSP,2013-03-22 17:55:00,
2013-03-22 14:00:00,36.4,23.1,29.81,SSW,202,0.0,7.6,58,0.00,,,0.00,WUHU21623XXSP,2013-03-22 18:00:00,
2013-03-22 14:05:00,36.4,22.6,29.81,SW,225,3.8,3.8,57,0.00,,,0.00,WUHU21623XXSP,2013-03-22 18:05:00,
2013-03-22 14:10:00,36.3,22.5,29.81,West,270,3.4,3.8,57,0.00,,,0.00,WUHU21623XXSP,2013-03-22 18:10:00,
2013-03-22 14:18:00,36.3,22.5,29.81,SSW,202,1.3,1.3,57,0.00,,,0.00,WUHU21623XXSP,2013-03-22 18:18:00,
2013-03-22 14:23:00,36.4,23.1,29.81,WSW,247,0.0,1.3,58,0.00,,,0.00,WUHU21623XXSP,2013-03-22 18:23:00,
2013-03-22 14:28:00,36.4,22.6,29.81,WNW,292,7.8,7.8,57,0.00,,,0.00,WUHU21623XXSP,2013-03-22 18:28:00,
2013-03-22 14:33:00,36.4,22.6,29.81,West,270,0.0,7.8,57,0.00,,,0.00,WUHU21623XXSP,2013-03-22 18:33:00,
2013-03-22 14:38:00,36.6,22.8,29.81,SSW,202,0.4,6.9,57,0.00,,,0.00,WUHU21623XXSP,2013-03-22 18:38:00,
2013-03-22 14:43:00,36.8,23.0,29.81,WSW,247,3.4,3.4,57,0.00,,,0.00,WUHU21623XXSP,2013-03-22 18:43:00,
2013-03-22 14:48:00,36.6,22.8,29.81,West,270,3.1,3.4,57,0.00,,,0.00,WUHU21623XXSP,2013-03-22 18:48:00,
2013-03-22 14:53:00,37.0,23.2,29.81,West,270,7.2,7.2,57,0.00,,,0.00,WUHU21623XXSP,2013-03-22 18:53:00,
2013-03-22 14:58:00,37.0,23.2,29.81,WSW,247,5.4,7.2,57,0.00,,,0.00,WUHU21623XXSP,2013-03-22 18:58:00,
2013-03-22 15:03:00,37.0,22.8,29.81,WNW,292,7.8,7.8,56,0.00,,,0.00,WUHU21623XXSP,2013-03-22 19:03:00,
2013-03-22 15:08:00,37.0,22.8,29.81,SW,225,6.3,7.8,56,0.00,,,0.00,WUHU21623XXSP,2013-03-22 19:08:00,
2013-03-22 15:14:00,36.8,22.6,29.81,WSW,247,3.6,6.3,56,0.00,,,0.00,WUHU21623XXSP,2013-03-22 19:14:00,
2013-03-22 15:19:00,36.8,22.6,29.81,SW,225,6.9,6.9,56,0.00,,,0.00,WUHU21623XXSP,2013-03-22 19:19:00,
2013-03-22 15:24:00,36.8,23.0,29.81,WNW,292,8.3,8.3,57,0.00,,,0.00,WUHU21623XXSP,2013-03-22 19:24:00,
2013-03-22 15:29:00,36.6,22.4,29.81,SSW,202,5.1,8.3,56,0.00,,,0.00,WUHU21623XXSP,2013-03-22 19:29:00,
2013-03-22 15:34:00,36.6,22.4,29.81,West,270,0.0,5.1,56,0.00,,,0.00,WUHU21623XXSP,2013-03-22 19:34:00,
2013-03-22 15:39:00,36.8,22.6,29.80,West,270,4.3,14.3,56,0.00,,,0.00,WUHU21623XXSP,2013-03-22 19:39:00,
2013-03-22 15:44:00,36.8,22.6,29.80,SW,225,0.0,14.3,56,0.00,,,0.00,WUHU21623XXSP,2013-03-22 19:44:00,
2013-03-22 15:49:00,37.0,22.8,29.80,South,180,2.0,2.0,56,0.00,,,0.00,WUHU21623XXSP,2013-03-22 19:49:00,
2013-03-22 15:54:00,37.2,23.0,29.80,West,270,0.0,2.0,56,0.00,,,0.00,WUHU21623XXSP,2013-03-22 19:54:00,
2013-03-22 16:01:00,37.2,23.0,29.80,WSW,247,0.0,0.0,56,0.00,,,0.00,WUHU21623XXSP,2013-03-22 20:01:00,
2013-03-22 16:06:00,37.2,23.0,29.81,West,270,2.0,2.0,56,0.00,,,0.00,WUHU21623XXSP,2013-03-22 20:06:00,
2013-03-22 16:11:00,37.0,22.8,29.80,WSW,247,0.0,2.0,56,0.00,,,0.00,WUHU21623XXSP,2013-03-22 20:11:00,
2013-03-22 16:17:00,36.8,22.6,29.80,SE,135,5.8,5.8,56,0.00,,,0.00,WUHU21623XXSP,2013-03-22 20:17:00,
2013-03-22 16:22:00,36.3,22.1,29.80,SSW,202,5.8,5.8,56,0.00,,,0.00,WUHU21623XXSP,2013-03-22 20:22:00,
2013-03-22 16:27:00,36.1,21.9,29.80,WSW,247,6.9,6.9,56,0.00,,,0.00,WUHU21623XXSP,2013-03-22 20:27:00,
2013-03-22 16:33:00,35.7,22.0,29.79,WSW,247,0.0,6.9,57,0.00,,,0.00,WUHU21623XXSP,2013-03-22 20:33:00,
2013-03-22 16:39:00,35.7,22.0,29.79,WSW,247,7.6,7.6,57,0.00,,,0.00,WUHU21623XXSP,2013-03-22 20:39:00,
2013-03-22 16:44:00,35.5,21.8,29.79,WSW,247,0.0,7.6,57,0.00,,,0.00,WUHU21623XXSP,2013-03-22 20:44:00,
2013-03-22 16:49:00,35.4,21.7,29.79,South,180,0.0,0.0,57,0.00,,,0.00,WUHU21623XXSP,2013-03-22 20:49:00,
2013-03-22 16:54:00,35.5,22.2,29.79,WNW,292,4.9,4.9,58,0.00,,,0.00,WUHU21623XXSP,2013-03-22 20:54:00,
2013-03-22 16:59:00,35.5,22.2,29.79,SSW,202,0.0,4.9,58,0.00,,,0.00,WUHU21623XXSP,2013-03-22 20:59:00,
2013-03-22 17:04:00,35.5,22.2,29.79,SSW,202,0.0,0.0,58,0.00,,,0.00,WUHU21623XXSP,2013-03-22 21:04:00,
2013-03-22 17:09:00,35.2,21.5,29.79,West,270,0.0,4.7,57,0.00,,,0.00,WUHU21623XXSP,2013-03-22 21:09:00,
2013-03-22 17:14:00,35.2,21.9,29.79,West,270,5.6,5.6,58,0.00,,,0.00,WUHU21623XXSP,2013-03-22 21:14:00,
2013-03-22 17:19:00,35.2,21.9,29.79,SW,225,6.5,6.5,58,0.00,,,0.00,WUHU21623XXSP,2013-03-22 21:19:00,
2013-03-22 17:24:00,35.0,21.7,29.79,WSW,247,0.0,6.5,58,0.00,,,0.00,WUHU21623XXSP,2013-03-22 21:24:00,
2013-03-22 17:29:00,35.0,21.7,29.79,WNW,292,0.0,0.0,58,0.00,,,0.00,WUHU21623XXSP,2013-03-22 21:29:00,
2013-03-22 17:34:00,35.0,22.2,29.79,WNW,292,0.0,0.0,59,0.00,,,0.00,WUHU21623XXSP,2013-03-22 21:34:00,
2013-03-22 17:39:00,35.2,21.9,29.79,SW,225,0.0,2.0,58,0.00,,,0.00,WUHU21623XXSP,2013-03-22 21:39:00,
2013-03-22 17:44:00,35.5,22.6,29.79,SSW,202,1.6,2.0,59,0.00,,,0.00,WUHU21623XXSP,2013-03-22 21:44:00,
2013-03-22 17:49:00,35.4,22.1,29.80,SW,225,0.0,1.6,58,0.00,,,0.00,WUHU21623XXSP,2013-03-22 21:49:00,
2013-03-22 17:56:00,35.4,22.1,29.79,WNW,292,4.3,6.7,58,0.00,,,0.00,WUHU21623XXSP,2013-03-22 21:56:00,
2013-03-22 18:01:00,35.4,22.1,29.80,West,270,0.0,4.3,58,0.00,,,0.00,WUHU21623XXSP,2013-03-22 22:01:00,
2013-03-22 18:06:00,35.4,22.1,29.79,WSW,247,0.0,0.0,58,0.00,,,0.00,WUHU21623XXSP,2013-03-22 22:06:00,
2013-03-22 18:11:00,35.2,21.9,29.80,South,180,0.0,5.8,58,0.00,,,0.00,WUHU21623XXSP,2013-03-22 22:11:00,
2013-03-22 18:16:00,35.0,21.7,29.80,South,180,0.0,5.8,58,0.00,,,0.00,WUHU21623XXSP,2013-03-22 22:16:00,
2013-03-22 18:21:00,34.8,22.0,29.80,West,270,0.0,0.0,59,0.00,,,0.00,WUHU21623XXSP,2013-03-22 22:21:00,
2013-03-22 18:26:00,34.6,21.8,29.80,WNW,292,4.7,4.7,59,0.00,,,0.00,WUHU21623XXSP,2013-03-22 22:26:00,
2013-03-22 18:33:00,34.6,22.2,29.80,WSW,247,0.0,4.7,60,0.00,,,0.00,WUHU21623XXSP,2013-03-22 22:33:00,
2013-03-22 18:38:00,34.6,22.2,29.80,West,270,0.0,0.0,60,0.00,,,0.00,WUHU21623XXSP,2013-03-22 22:38:00,
2013-03-22 18:43:00,34.6,22.2,29.80,WSW,247,4.0,4.0,60,0.00,,,0.00,WUHU21623XXSP,2013-03-22 22:43:00,
2013-03-22 18:48:00,34.6,22.2,29.81,NNW,337,0.0,4.0,60,0.00,,,0.00,WUHU21623XXSP,2013-03-22 22:48:00,
2013-03-22 18:53:00,34.5,22.1,29.81,NNW,337,0.0,0.0,60,0.00,,,0.00,WUHU21623XXSP,2013-03-22 22:53:00,
2013-03-22 18:58:00,34.6,22.2,29.81,NW,315,0.0,6.9,60,0.00,,,0.00,WUHU21623XXSP,2013-03-22 22:58:00,
2013-03-22 19:03:00,34.6,22.6,29.81,WNW,292,2.2,6.9,61,0.00,,,0.00,WUHU21623XXSP,2013-03-22 23:03:00,
2013-03-22 19:08:00,34.6,22.6,29.80,NNW,337,7.2,7.2,61,0.00,,,0.00,WUHU21623XXSP,2013-03-22 23:08:00,
2013-03-22 19:13:00,34.6,22.6,29.81,NW,315,7.4,7.4,61,0.00,,,0.00,WUHU21623XXSP,2013-03-22 23:13:00,
2013-03-22 19:20:00,33.7,21.7,29.81,NW,315,0.0,7.4,61,0.00,,,0.00,WUHU21623XXSP,2013-03-22 23:20:00,
2013-03-22 19:25:00,33.6,21.6,29.81,NNW,337,4.7,4.7,61,0.00,,,0.00,WUHU21623XXSP,2013-03-22 23:25:00,
2013-03-22 19:30:00,33.2,21.3,29.81,WNW,292,2.2,4.7,61,0.00,,,0.00,WUHU21623XXSP,2013-03-22 23:30:00,
2013-03-22 19:35:00,32.8,20.9,29.81,NW,315,0.0,2.2,61,0.00,,,0.00,WUHU21623XXSP,2013-03-22 23:35:00,
2013-03-22 19:40:00,32.5,21.0,29.81,NNW,337,0.0,3.4,62,0.00,,,0.00,WUHU21623XXSP,2013-03-22 23:40:00,
2013-03-22 19:45:00,32.3,20.8,29.82,NNW,337,0.0,3.4,62,0.00,,,0.00,WUHU21623XXSP,2013-03-22 23:45:00,
2013-03-22 19:50:00,32.1,21.0,29.82,NNW,337,0.0,0.0,63,0.00,,,0.00,WUHU21623XXSP,2013-03-22 23:50:00,
2013-03-22 19:55:00,31.9,20.8,29.82,NNW,337,0.0,0.0,63,0.00,,,0.00,WUHU21623XXSP,2013-03-22 23:55:00,
2013-03-22 20:00:00,31.6,20.9,29.82,NNW,337,0.0,0.0,64,0.00,,,0.00,WUHU21623XXSP,2013-03-23 00:00:00,
2013-03-22 20:05:00,31.2,20.5,29.82,NNW,337,0.0,0.0,64,0.00,,,0.00,WUHU21623XXSP,2013-03-23 00:05:00,
2013-03-22 20:10:00,31.0,20.7,29.82,NNW,337,0.0,0.0,65,0.00,,,0.00,WUHU21623XXSP,2013-03-23 00:10:00,
2013-03-22 20:15:00,30.9,20.6,29.82,NW,315,0.0,0.0,65,0.00,,,0.00,WUHU21623XXSP,2013-03-23 00:15:00,
2013-03-22 20:20:00,30.3,20.0,29.82,NNW,337,0.0,0.0,65,0.00,,,0.00,WUHU21623XXSP,2013-03-23 00:20:00,
2013-03-22 20:25:00,30.3,20.0,29.83,NW,315,0.0,0.0,65,0.00,,,0.00,WUHU21623XXSP,2013-03-23 00:25:00,
2013-03-22 20:30:00,30.3,20.0,29.83,NNW,337,0.0,0.0,65,0.00,,,0.00,WUHU21623XXSP,2013-03-23 00:30:00,
2013-03-22 20:35:00,30.1,20.2,29.84,NNW,337,0.0,0.0,66,0.00,,,0.00,WUHU21623XXSP,2013-03-23 00:35:00,
2013-03-22 20:40:00,30.1,20.2,29.83,NW,315,6.9,6.9,66,0.00,,,0.00,WUHU21623XXSP,2013-03-23 00:40:00,
2013-03-22 20:45:00,29.8,20.2,29.84,NNW,337,4.9,6.9,67,0.00,,,0.00,WUHU21623XXSP,2013-03-23 00:45:00,
2013-03-22 20:50:00,29.6,20.0,29.84,NW,315,0.0,6.9,67,0.00,,,0.00,WUHU21623XXSP,2013-03-23 00:50:00,
2013-03-22 20:55:00,29.4,19.9,29.84,NW,315,0.0,0.0,67,0.00,,,0.00,WUHU21623XXSP,2013-03-23 00:55:00,
2013-03-22 21:00:00,29.2,20.0,29.84,NW,315,0.0,0.0,68,0.00,,,0.00,WUHU21623XXSP,2013-03-23 01:00:00,
2013-03-22 21:05:00,29.1,19.9,29.84,NNW,337,0.0,0.0,68,0.00,,,0.00,WUHU21623XXSP,2013-03-23 01:05:00,
2013-03-22 21:10:00,29.1,19.9,29.84,NNW,337,0.0,0.0,68,0.00,,,0.00,WUHU21623XXSP,2013-03-23 01:10:00,
2013-03-22 21:15:00,28.9,20.1,29.84,NNW,337,0.0,0.0,69,0.00,,,0.00,WUHU21623XXSP,2013-03-23 01:15:00,
2013-03-22 21:20:00,28.7,19.9,29.84,NW,315,0.0,0.0,69,0.00,,,0.00,WUHU21623XXSP,2013-03-23 01:20:00,
2013-03-22 21:25:00,28.5,19.7,29.84,NW,315,0.0,0.0,69,0.00,,,0.00,WUHU21623XXSP,2013-03-23 01:25:00,
2013-03-22 21:30:00,28.5,19.7,29.85,NW,315,0.0,0.0,69,0.00,,,0.00,WUHU21623XXSP,2013-03-23 01:30:00,
2013-03-22 21:35:00,28.3,19.8,29.85,NW,315,0.0,0.0,70,0.00,,,0.00,WUHU21623XXSP,2013-03-23 01:35:00,
2013-03-22 21:40:00,28.3,19.8,29.86,NW,315,0.0,0.0,70,0.00,,,0.00,WUHU21623XXSP,2013-03-23 01:40:00,
2013-03-22 21:47:00,28.0,19.5,29.85,NNW,337,0.0,0.0,70,0.00,,,0.00,WUHU21623XXSP,2013-03-23 01:47:00,
2013-03-22 21:53:00,27.8,19.3,29.85,NNW,337,0.0,0.0,70,0.00,,,0.00,WUHU21623XXSP,2013-03-23 01:53:00,
2013-03-22 21:58:00,27.8,19.7,29.86,NNW,337,0.0,0.0,71,0.00,,,0.00,WUHU21623XXSP,2013-03-23 01:58:00,
2013-03-22 22:05:00,27.6,19.5,29.86,NNW,337,0.0,0.0,71,0.00,,,0.00,WUHU21623XXSP,2013-03-23 02:05:00,
2013-03-22 22:10:00,27.6,19.8,29.86,NNW,337,0.0,0.0,72,0.00,,,0.00,WUHU21623XXSP,2013-03-23 02:10:00,
2013-03-22 22:15:00,27.4,19.6,29.86,NNW,337,0.0,0.0,72,0.00,,,0.00,WUHU21623XXSP,2013-03-23 02:15:00,
2013-03-22 22:20:00,27.4,19.6,29.85,NNW,337,0.0,0.0,72,0.00,,,0.00,WUHU21623XXSP,2013-03-23 02:20:00,
2013-03-22 22:25:00,27.3,19.5,29.86,NNW,337,0.0,0.0,72,0.00,,,0.00,WUHU21623XXSP,2013-03-23 02:25:00,
2013-03-22 22:30:00,27.3,19.8,29.86,NNW,337,0.0,0.0,73,0.00,,,0.00,WUHU21623XXSP,2013-03-23 02:30:00,
2013-03-22 22:35:00,27.1,19.6,29.86,NNW,337,0.0,0.0,73,0.00,,,0.00,WUHU21623XXSP,2013-03-23 02:35:00,
2013-03-22 22:40:00,27.1,19.6,29.86,NNW,337,0.0,0.0,73,0.00,,,0.00,WUHU21623XXSP,2013-03-23 02:40:00,
2013-03-22 22:45:00,26.7,19.3,29.85,NNW,337,0.0,0.0,73,0.00,,,0.00,WUHU21623XXSP,2013-03-23 02:45:00,
2013-03-22 22:50:00,26.5,19.1,29.86,NNW,337,0.0,0.0,73,0.00,,,0.00,WUHU21623XXSP,2013-03-23 02:50:00,
2013-03-22 22:55:00,26.5,19.1,29.85,NNW,337,0.0,0.0,73,0.00,,,0.00,WUHU21623XXSP,2013-03-23 02:55:00,
2013-03-22 23:00:00,26.0,18.6,29.86,NNW,337,0.0,0.0,73,0.00,,,0.00,WUHU21623XXSP,2013-03-23 03:00:00,
2013-03-22 23:05:00,25.8,18.7,29.86,NNW,337,0.0,0.0,74,0.00,,,0.00,WUHU21623XXSP,2013-03-23 03:05:00,
2013-03-22 23:10:00,25.6,18.5,29.86,NNW,337,0.0,0.0,74,0.00,,,0.00,WUHU21623XXSP,2013-03-23 03:10:00,
2013-03-22 23:15:00,25.5,18.7,29.86,NNW,337,0.0,0.0,75,0.00,,,0.00,WUHU21623XXSP,2013-03-23 03:15:00,
2013-03-22 23:20:00,25.3,18.5,29.86,NNW,337,0.0,0.0,75,0.00,,,0.00,WUHU21623XXSP,2013-03-23 03:20:00,
2013-03-22 23:25:00,25.1,18.3,29.86,NNW,337,0.0,0.0,75,0.00,,,0.00,WUHU21623XXSP,2013-03-23 03:25:00,